CZ-6A R/B, 62237

Orbit data source: Space-Track

CZ-6A R/B, 62237 is space debris in LEO originally from a launch on Thu, 05 Dec 2024 UTC launched from the Taiyaun Space Center, China (TSC). Debris objects in space refer to the collection of defunct objects orbiting the Earth. Examples of debris include non-operational satellites, rocket bodies, and fragments generated from explosions, collisions, or faulty payload assembly.

Loading next visibility...
Identifier
62237, 2024-232A
Orbit
LEO
Country
Flag of CNCN / PRC
Related business
Manufacturer
SAST
Mission
Spacecraft
Bus & Motor
CZ-6A STAGE 2, YF-115
Mass
~6,000 kg wet, ~6,000 kg dry
Launch date (UTC)
2024-12-05 (2 years ago)
Launch vehicle
Unknown
Launch site
Taiyaun Space Center, China (TSC)
Object type
Payload
Rocket body
Debris
Shape & HBR
CYL, 5.5 m
Radar Cross Section
Large (>1 m²)

Expand to show TLE details & history
Last TLE update: 9 hours ago

TLE from 9 hours ago
0 CZ-6A R/B
1 62237U 24232A   26246.84977951  .00000180  00000-0  37404-4 0  9994
2 62237  89.0422   6.1288 0100500  94.1509 267.1193 14.51918650140831
Epoch: 2026-09-03T20:23Z
TLE epoch observation values (Epoch: 2026-09-03T20:23:40.949Z)
Latitude
0.00001°
Longitude
77.22613°
Altitude
726.789 km
Speed
7.49 km/s
True Right ascension
00h 24m 30s
True Declination
0° 00' 00"
Sunlit
Object was in full shadow at epoch
Visualization orbit readout
Latitude
Unknown
Longitude
Unknown
Altitude
Unknown
Speed
Unknown
Apparent Right ascension
Unknown
Apparent Declination
Unknown
Sunlit
N/A
Visualization observer readout
Local Sidereal Time
21:06:17
Azimuth
Unknown
Elevation
Unknown
Doppler factor
Unknown
Orbital elements
Apogee altitude
787.593 km
Perigee altitude
644.995 km
Semi-major axis
7,094.431 km
Eccentricity
0.01005
Inclination
89.0422°
RAAN
6.1288°
Arg. of periapsis
94.1509°
True anomaly
265.96991°
Mean anomaly
267.1193°
Eccentric anomaly
266.54452°
Mean motion
3.63218 °/min
Orbital period
99.11 mins
BSTAR
0.000037404
Loading maneuver chart data...
Computing Atmospheric mass density...
Loading historical data...
Loading historical data...
Loading historical data...
Loading historical data...
Loading historical data...
Loading historical data...
Loading historical data...

Documentation

Showing up to 5 results
|